• In Uzbekistan
  • List of Countries
  • For 7 days
  • Water Temperature
  • Satellite Maps
  • Weather Map
  • Weather Widgets
  • user-avatar
    Login

    Hourly Weather Perth

    Today, 28 March, Tuesday

    Time Temperature Precipitation Wind Pressure Humidity
    00:00 +13°C° 0 mm 3 mps 763 mmHg 84%
    01:00 +14°C° 0 mm 2 mps 763 mmHg 85%
    02:00 +13°C° 0 mm 2 mps 763 mmHg 88%
    03:00 +13°C° 0 mm 2 mps 763 mmHg 88%
    04:00 +13°C° 0 mm 2 mps 762 mmHg 88%
    05:00 +13°C° 0 mm 2 mps 762 mmHg 89%
    06:00 +14°C° 0 mm 2 mps 762 mmHg 83%
    07:00 +15°C° 0 mm 2 mps 762 mmHg 78%
    08:00 +17°C° 0 mm 2 mps 762 mmHg 73%
    09:00 +19°C° 0 mm 2 mps 762 mmHg 64%
    10:00 +21°C° 0 mm 2 mps 762 mmHg 55%
    11:00 +25°C° 0 mm 3 mps 762 mmHg 47%
    12:00 +26°C° 0 mm 3 mps 762 mmHg 46%
    13:00 +26°C° 0 mm 4 mps 762 mmHg 46%
    14:00 +27°C° 0 mm 5 mps 761 mmHg 45%
    15:00 +26°C° 0 mm 5 mps 761 mmHg 48%
    16:00 +25°C° 0 mm 5 mps 761 mmHg 51%
    17:00 +23°C° 0 mm 5 mps 761 mmHg 54%
    18:00 +22°C° 0 mm 5 mps 762 mmHg 59%
    19:00 +20°C° 0 mm 5 mps 762 mmHg 64%
    20:00 +17°C° 0 mm 5 mps 763 mmHg 68%
    21:00 +17°C° 0 mm 5 mps 763 mmHg 70%
    22:00 +16°C° 0 mm 5 mps 764 mmHg 72%
    23:00 +17°C° 0 mm 4 mps 764 mmHg 74%

    Tomorrow, 29 March, Wednesday

    Time Temperature Precipitation Wind Pressure Humidity
    00:00 +15°C° 0 mm 4 mps 764 mmHg 76%
    01:00 +15°C° 0 mm 4 mps 764 mmHg 79%
    02:00 +15°C° 0 mm 4 mps 764 mmHg 81%
    03:00 +14°C° 0 mm 5 mps 765 mmHg 80%
    04:00 +14°C° 0 mm 5 mps 765 mmHg 78%
    05:00 +14°C° 0 mm 5 mps 765 mmHg 77%
    06:00 +14°C° 0 mm 6 mps 766 mmHg 72%
    07:00 +14°C° 0 mm 6 mps 766 mmHg 67%
    08:00 +14°C° 0 mm 6 mps 767 mmHg 62%
    09:00 +16°C° 0 mm 6 mps 767 mmHg 54%
    10:00 +19°C° 0 mm 6 mps 767 mmHg 46%
    11:00 +21°C° 0 mm 6 mps 767 mmHg 39%
    12:00 +22°C° 0 mm 5 mps 766 mmHg 35%
    13:00 +25°C° 0 mm 5 mps 765 mmHg 31%
    14:00 +26°C° 0 mm 5 mps 765 mmHg 27%
    15:00 +26°C° 0 mm 5 mps 765 mmHg 27%
    16:00 +26°C° 0 mm 5 mps 764 mmHg 27%
    17:00 +25°C° 0 mm 4 mps 764 mmHg 27%
    18:00 +23°C° 0 mm 4 mps 765 mmHg 31%
    19:00 +21°C° 0 mm 4 mps 765 mmHg 34%
    20:00 +19°C° 0 mm 4 mps 765 mmHg 38%
    21:00 +19°C° 0 mm 5 mps 765 mmHg 39%
    22:00 +19°C° 0 mm 5 mps 766 mmHg 40%
    23:00 +19°C° 0 mm 6 mps 766 mmHg 42%

    Day after tomorrow, 30 March, Thursday

    Time Temperature Precipitation Wind Pressure Humidity
    00:00 +17°C° 0 mm 6 mps 766 mmHg 43%
    01:00 +17°C° 0 mm 6 mps 766 mmHg 45%
    02:00 +16°C° 0 mm 6 mps 766 mmHg 46%
    03:00 +16°C° 0 mm 6 mps 765 mmHg 48%
    04:00 +15°C° 0 mm 5 mps 765 mmHg 50%
    05:00 +15°C° 0 mm 5 mps 765 mmHg 52%
    06:00 +15°C° 0 mm 5 mps 765 mmHg 52%
    07:00 +16°C° 0 mm 5 mps 766 mmHg 51%
    08:00 +16°C° 0 mm 5 mps 766 mmHg 50%
    09:00 +20°C° 0 mm 4 mps 766 mmHg 45%
    10:00 +22°C° 0 mm 4 mps 766 mmHg 39%
    11:00 +26°C° 0 mm 3 mps 766 mmHg 34%
    12:00 +27°C° 0 mm 3 mps 765 mmHg 31%
    13:00 +29°C° 0 mm 2 mps 764 mmHg 28%
    14:00 +31°C° 0 mm 2 mps 764 mmHg 24%
    15:00 +30°C° 0 mm 3 mps 764 mmHg 26%
    16:00 +29°C° 0 mm 3 mps 763 mmHg 28%
    17:00 +29°C° 0 mm 4 mps 763 mmHg 29%
    18:00 +26°C° 0 mm 4 mps 764 mmHg 36%
    19:00 +22°C° 0 mm 4 mps 764 mmHg 43%
    20:00 +20°C° 0 mm 4 mps 764 mmHg 49%
    21:00 +20°C° 0 mm 3 mps 764 mmHg 48%
    22:00 +19°C° 0 mm 3 mps 765 mmHg 47%
    23:00 +19°C° 0 mm 3 mps 765 mmHg 45%

    31 March, Friday

    Time Temperature Precipitation Wind Pressure Humidity
    00:00 +19°C° 0 mm 3 mps 764 mmHg 44%
    01:00 +18°C° 0 mm 3 mps 764 mmHg 44%
    02:00 +18°C° 0 mm 3 mps 764 mmHg 43%
    03:00 +18°C° 0 mm 3 mps 764 mmHg 43%
    04:00 +17°C° 0 mm 3 mps 764 mmHg 44%
    05:00 +17°C° 0 mm 3 mps 764 mmHg 44%
    06:00 +18°C° 0 mm 3 mps 764 mmHg 42%
    07:00 +19°C° 0 mm 3 mps 765 mmHg 41%
    08:00 +20°C° 0 mm 3 mps 765 mmHg 39%
    09:00 +24°C° 0 mm 3 mps 765 mmHg 34%
    10:00 +26°C° 0 mm 3 mps 765 mmHg 29%
    11:00 +29°C° 0 mm 2 mps 765 mmHg 25%
    12:00 +30°C° 0 mm 3 mps 764 mmHg 23%
    13:00 +31°C° 0 mm 3 mps 764 mmHg 21%
    14:00 +34°C° 0 mm 3 mps 763 mmHg 19%
    15:00 +33°C° 0 mm 3 mps 763 mmHg 20%
    16:00 +32°C° 0 mm 4 mps 763 mmHg 21%
    17:00 +32°C° 0 mm 4 mps 763 mmHg 22%
    18:00 +28°C° 0 mm 4 mps 763 mmHg 26%
    19:00 +26°C° 0 mm 4 mps 764 mmHg 30%
    20:00 +22°C° 0 mm 4 mps 764 mmHg 34%
    21:00 +22°C° 0 mm 4 mps 764 mmHg 33%
    22:00 +22°C° 0 mm 4 mps 765 mmHg 33%
    23:00 +22°C° 0 mm 5 mps 765 mmHg 32%

    1 April, Saturday

    Time Temperature Precipitation Wind Pressure Humidity
    00:00 +21°C° 0 mm 5 mps 765 mmHg 38%
    01:00 +21°C° 0 mm 5 mps 765 mmHg 45%
    02:00 +20°C° 0 mm 5 mps 765 mmHg 51%
    03:00 +19°C° 0 mm 5 mps 765 mmHg 52%
    04:00 +19°C° 0 mm 5 mps 765 mmHg 53%
    05:00 +17°C° 0 mm 5 mps 765 mmHg 54%
    06:00 +19°C° 0 mm 5 mps 765 mmHg 53%
    07:00 +19°C° 0 mm 5 mps 765 mmHg 51%
    08:00 +20°C° 0 mm 5 mps 766 mmHg 49%
    09:00 +22°C° 0 mm 5 mps 766 mmHg 42%
    10:00 +26°C° 0 mm 4 mps 765 mmHg 34%
    11:00 +29°C° 0 mm 4 mps 765 mmHg 27%
    12:00 +30°C° 0 mm 3 mps 765 mmHg 24%
    13:00 +31°C° 0 mm 3 mps 764 mmHg 21%
    14:00 +34°C° 0 mm 2 mps 763 mmHg 18%
    15:00 +33°C° 0 mm 3 mps 763 mmHg 19%
    16:00 +33°C° 0 mm 3 mps 763 mmHg 19%
    17:00 +31°C° 0 mm 3 mps 763 mmHg 20%
    18:00 +29°C° 0 mm 3 mps 763 mmHg 23%
    19:00 +26°C° 0 mm 3 mps 764 mmHg 26%
    20:00 +22°C° 0 mm 3 mps 764 mmHg 29%
    21:00 +23°C° 0 mm 4 mps 764 mmHg 29%
    22:00 +23°C° 0 mm 4 mps 764 mmHg 29%
    23:00 +23°C° 0 mm 4 mps 764 mmHg 29%

    2 April, Sunday

    Time Temperature Precipitation Wind Pressure Humidity
    00:00 +22°C° 0 mm 4 mps 764 mmHg 31%
    01:00 +22°C° 0 mm 4 mps 764 mmHg 32%
    02:00 +21°C° 0 mm 4 mps 764 mmHg 34%
    03:00 +21°C° 0 mm 4 mps 764 mmHg 36%
    04:00 +21°C° 0 mm 4 mps 764 mmHg 38%
    05:00 +20°C° 0 mm 4 mps 764 mmHg 40%
    06:00 +21°C° 0 mm 5 mps 764 mmHg 39%
    07:00 +21°C° 0 mm 5 mps 765 mmHg 38%
    08:00 +22°C° 0 mm 5 mps 765 mmHg 37%
    09:00 +25°C° 0 mm 5 mps 765 mmHg 32%
    10:00 +28°C° 0 mm 4 mps 765 mmHg 27%
    11:00 +30°C° 0 mm 4 mps 764 mmHg 22%
    12:00 +33°C° 0 mm 3 mps 764 mmHg 20%
    13:00 +34°C° 0 mm 3 mps 763 mmHg 18%
    14:00 +35°C° 0 mm 2 mps 762 mmHg 16%
    15:00 +34°C° 0 mm 2 mps 762 mmHg 17%
    16:00 +33°C° 0 mm 1 mps 763 mmHg 17%
    17:00 +33°C° 0 mm 1 mps 763 mmHg 18%
    18:00 +30°C° 0 mm 2 mps 763 mmHg 22%
    19:00 +27°C° 0 mm 2 mps 763 mmHg 25%
    20:00 +24°C° 0 mm 2 mps 764 mmHg 29%
    21:00 +24°C° 0 mm 2 mps 764 mmHg 29%
    22:00 +22°C° 0 mm 3 mps 764 mmHg 28%
    23:00 +22°C° 0 mm 3 mps 764 mmHg 28%
    Show more